Location: Misciano
(43.5000°N, 11.9500°E)
Time: 04:36:04
(UTC+00:00)

Meteor 2-11 Rocket - Pass Details

Date: 13 August 2020
Orbit: 940 x 956 km, 82.5° (Epoch: 19 September)

Event Time Altitude Azimuth Distance (km) Brightness Sun altitude
Exits shadow 22:32:29 74° 339° (NNW) 985 4.5 -31.3°
Drops below altitude 10° 22:38:05 10° 7° (N) 2,678 7.6 -31.5°
Sets 22:40:36 0° 8° (N) 3,630 8.5 -31.6°
